Onweer radar Meer informatie blitzortung!


Regen radar Meer informatie rain snow radar


Bezoek onze andere website:

Template documentation
and downloads

And another site



15 daagse weersverwachting Mo i Rana (NO)

  • Overzicht
  • Per uur
  • 15 dagen
  • Extra
  • Vergelijk
  • Kaarten
  • Dagkaart
  • Meer »
  • Info
  • Statistieken
  • Directe link
    Temp 6h Neerslag Wind  
 05:10     21:04    Daglengte: 15:54 Vandaag
14:00
12°
8.7 mm
1
20:00
12°
8.8 mm
2
 05:14     21:00    Daglengte: 15:46 Morgen
02:00
10°
 
2
08:00
11°
 
1
14:00
15°
 
1
20:00
15°
 
1
 05:17     20:56    Daglengte: 15:39 Zondag 25 Aug
02:00
12°
7.7 mm
1
08:00
13°
16.1 mm
2
14:00
14°
27.7 mm
6
20:00
13°
11.2 mm
7
 05:20     20:52    Daglengte: 15:32 Maandag 26 Aug
02:00
11°
46.3 mm
5
Locatie info
Region: Nordland
Latitude: 66.3106°N
Longitude: 14.1346°E
40 masl
Postcode: 8622
Temp/Neerslag /Baro Onweer/Dauwpunt
    Temp Baro 1h Neerslag Dauwpunt Wind UV Bewolking  
 05:10     21:04    Daglengte: 15:54 Vandaag
09:00
11°
1011.4 hPa 1.3 mm
80%
9.8°
1
Windvlaag: 1.1 m/s
91%
10:00
11°
1011.7 hPa 1.4 mm
82%
10.3°
0
Windvlaag: 0.9 m/s
90%
11:00
12°
1011.9 hPa 1.9 mm
82%
10.6°
1
Windvlaag: 0.8 m/s
90%
12:00
12°
1012.2 hPa 1.4 mm
82%
10.8°
1
Windvlaag: 0.9 m/s
88%
13:00
12°
1012.6 hPa 1.4 mm
82%
10.8°
1
Windvlaag: 1.1 m/s
86%
14:00
12°
1013.0 hPa 1.3 mm
82%
10.8°
1
Windvlaag: 1.5 m/s
87%
15:00
13°
1013.5 hPa 1.8 mm
82%
10.8°
2
Windvlaag: 1.9 m/s
84%
16:00
13°
1013.8 hPa 1.3 mm
82%
10.9°
2
Windvlaag: 1.8 m/s
77%
17:00
13°
1014.2 hPa 1.3 mm
82%
10.9°
2
Windvlaag: 1.7 m/s
78%
18:00
13°
1014.6 hPa 1.3 mm
82%
10.8°
2
Windvlaag: 1.7 m/s
84%
19:00
12°
1015.0 hPa 1.3 mm
81%
10.7°
2
Windvlaag: 2.3 m/s
71%
20:00
12°
1015.7 hPa 1.7 mm
82%
10.7°
2
Windvlaag: 2.4 m/s
53%
21:00
11°
1016.4 hPa
42%
10.6°
2
Windvlaag: 2.9 m/s
68%
22:00
11°
1016.9 hPa
27%
10.5°
2
Windvlaag: 3.1 m/s
50%
23:00
11°
1017.4 hPa
23%
10.0°
2
Windvlaag: 3.5 m/s
57%
 05:14     21:00    Daglengte: 15:46 Morgen
00:00
10°
1018.1 hPa
57%
9.8°
2
Windvlaag: 3.9 m/s
57%
01:00
10°
1018.7 hPa
61%
9.5°
2
Windvlaag: 4.1 m/s
60%
02:00
10°
Voelt als: 9.1°
1019.4 hPa
66%
9.2°
2
Windvlaag: 3.9 m/s
61%
03:00
10°
Voelt als: 9.1°
1020.2 hPa
27%
9.3°
2
Windvlaag: 2.7 m/s
64%
04:00
10°
Voelt als: 9.4°
1020.8 hPa
20%
9.1°
1
Windvlaag: 2.5 m/s
67%
05:00
10°
Voelt als: 9.5°
1021.4 hPa
15%
8.9°
1
Windvlaag: 1.8 m/s
70%
06:00
10°
Voelt als: 9.7°
1021.9 hPa
14%
9.3°
1
Windvlaag: 1.4 m/s
66%
07:00
10°
1022.4 hPa
15%
9.5°
1
Windvlaag: 0.6 m/s
65%
08:00
11°
1022.8 hPa
50%
9.7°
1
Windvlaag: 0.9 m/s
62%
09:00
12°
1023.1 hPa
14%
10.0°
1
Windvlaag: 2.8 m/s
61%
10:00
12°
1023.2 hPa
14%
9.7°
1
Windvlaag: 2.5 m/s
55%
11:00
13°
1023.3 hPa
14%
9.2°
1
Windvlaag: 2.1 m/s
58%
12:00
14°
1023.3 hPa
14%
9.3°
2
Windvlaag: 2.1 m/s
48%
13:00
15°
1023.2 hPa
14%
8.9°
1
Windvlaag: 2.4 m/s
42%
14:00
15°
1023.1 hPa
14%
8.4°
1
Windvlaag: 2.7 m/s
61%
15:00
16°
1022.8 hPa
14%
7.8°
2
Windvlaag: 2.8 m/s
61%
16:00
16°
1022.5 hPa
14%
7.2°
2
Windvlaag: 2.9 m/s
81%
17:00
16°
1022.3 hPa
14%
7.0°
2
Windvlaag: 3.1 m/s
78%
18:00
16°
1021.9 hPa
14%
7.6°
1
Windvlaag: 2.8 m/s
75%
19:00
15°
1021.4 hPa
17%
8.3°
1
Windvlaag: 2.2 m/s
89%
20:00
15°
1021.1 hPa
76%
9.0°
1
Windvlaag: 1.4 m/s
89%
21:00
14°
1020.9 hPa
82%
9.5°
1
Windvlaag: 2.4 m/s
90%
22:00
13°
1020.7 hPa 2.0 mm
82%
9.2°
2
Windvlaag: 3.6 m/s
89%
23:00
13°
1020.4 hPa 1.9 mm
82%
8.9°
2
Windvlaag: 4.4 m/s
89%
 05:17     20:56    Daglengte: 15:39 Zondag 25 Aug
00:00
13°
1020.2 hPa 1.9 mm
82%
9.0°
1
Windvlaag: 4.2 m/s
88%
01:00
12°
1020.0 hPa
82%
8.9°
1
Windvlaag: 3.6 m/s
87%
02:00
12°
1019.7 hPa 1.9 mm
82%
9.3°
1
Windvlaag: 3.2 m/s
88%
03:00
12°
1019.2 hPa 3.2 mm
82%
9.5°
1
Windvlaag: 3.4 m/s
91%
04:00
12°
1018.8 hPa 2.3 mm
82%
9.8°
1
Windvlaag: 3.8 m/s
90%
05:00
13°
1017.5 hPa 2.1 mm
100%
10.0°
1
Windvlaag: 3.6 m/s
100%
06:00
12°
1017.2 hPa 3.1 mm
100%
10.9°
2
Windvlaag: 3.4 m/s
100%
07:00
13°
1016.7 hPa 2.3 mm
100%
11.4°
1
Windvlaag: 3.7 m/s
98%
08:00
13°
1016.3 hPa 3.0 mm
100%
11.8°
2
Windvlaag: 4.5 m/s
100%
09:00
14°
1016.0 hPa 3.5 mm
100%
12.7°
2
Windvlaag: 5.4 m/s
100%
10:00
14°
1015.8 hPa 4.1 mm
100%
12.9°
2
Windvlaag: 5.7 m/s
100%
11:00
14°
1015.6 hPa 4.4 mm
100%
12.9°
3
Windvlaag: 5.1 m/s
100%
12:00
14°
1015.4 hPa 4.8 mm
100%
13.0°
2
Windvlaag: 4.5 m/s
100%
13:00
14°
1015.3 hPa 5.3 mm
100%
12.6°
4
Windvlaag: 7.8 m/s
100%
14:00
14°
1015.2 hPa 5.6 mm
100%
12.7°
6
Windvlaag: 10.4 m/s
100%
15:00
14°
1015.5 hPa 4.8 mm
100%
13.0°
8
Windvlaag: 11.9 m/s
89%
16:00
14°
1015.7 hPa 6.4 mm
100%
12.1°
8
Windvlaag: 11.6 m/s
83%
17:00
14°
1015.8 hPa
97%
11.4°
7
Windvlaag: 11.1 m/s
62%
18:00
14°
1016.2 hPa
95%
11.0°
7
Windvlaag: 10.9 m/s
49%
19:00
13°
1016.1 hPa
94%
10.3°
7
Windvlaag: 10.7 m/s
44%
20:00
13°
1016.2 hPa
94%
9.6°
7
Windvlaag: 10.8 m/s
40%
21:00
12°
1016.3 hPa 11.4 mm
92%
9.5°
6
Windvlaag: 7.2 m/s
50%
22:00
12°
1016.4 hPa
97%
9.6°
6
Windvlaag: 6.2 m/s
58%
23:00
11°
1016.5 hPa 11.6 mm
99%
9.6°
6
Windvlaag: 6 m/s
64%
 05:20     20:52    Daglengte: 15:32 Maandag 26 Aug
00:00
11°
1016.5 hPa 11.6 mm
99%
9.9°
6
Windvlaag: 6 m/s
73%
01:00
11°
1016.6 hPa 11.7 mm
99%
10.2°
5
Windvlaag: 5.8 m/s
87%
02:00
11°
1016.7 hPa
99%
10.6°
5
Windvlaag: 2.6 m/s
95%
03:00
12°
1016.3 hPa 11.8 mm
97%
11.1°
5
Windvlaag: 13.1 m/s
100%
04:00
12°
1016.4 hPa
95%
11.1°
5
Windvlaag: 12.3 m/s
87%
05:00
12°
1016.5 hPa 11.8 mm
93%
11.1°
4
Windvlaag: 11.1 m/s
100%
06:00
12°
1016.6 hPa 11.9 mm
90%
11.1°
4
Windvlaag: 10.1 m/s
99%
07:00
12°
1016.7 hPa
90%
11.1°
4
Windvlaag: 10 m/s
87%
08:00
12°
1016.8 hPa
87%
11.2°
3
Windvlaag: 1.5 m/s
80%
Temp/Neerslag /Baro Onweer/Dauwpunt
    Temp Baro Neerslag Dauwpunt Wind Bewolking  
 05:10     21:04    Daglengte: 15:54 Vandaag
11:00
12°
1011.9 hPa 4.7 mm 10.6°
1
90%
14:00
12°
1013.0 hPa 4.0 mm 10.8°
1
87%
17:00
13°
1014.2 hPa 4.5 mm 10.9°
2
78%
20:00
12°
1015.7 hPa 4.4 mm 10.7°
2
53%
23:00
11°
1017.4 hPa   10.0°
2
57%
 05:14     21:00    Daglengte: 15:46 Morgen
02:00
10°
Voelt als: 9.1°
1019.4 hPa   9.2°
2
61%
05:00
10°
Voelt als: 9.5°
1021.4 hPa   8.9°
1
70%
08:00
11°
1022.8 hPa   9.7°
1
62%
11:00
13°
1023.3 hPa   9.2°
1
58%
14:00
15°
1023.1 hPa   8.4°
1
61%
17:00
16°
1022.3 hPa   7.0°
2
78%
20:00
15°
1021.1 hPa   9.0°
1
89%
23:00
13°
1020.4 hPa 3.9 mm 8.9°
2
89%
 05:17     20:56    Daglengte: 15:39 Zondag 25 Aug
02:00
12°
1019.7 hPa 3.9 mm 9.3°
1
88%
05:00
13°
1017.5 hPa 7.7 mm 10.0°
1
100%
08:00
13°
1016.3 hPa 8.4 mm 11.8°
2
100%
11:00
14°
1015.6 hPa 12.0 mm 12.9°
3
100%
14:00
14°
1015.2 hPa 15.7 mm 12.7°
6
100%
17:00
14°
1015.8 hPa 11.2 mm 11.4°
7
62%
20:00
13°
1016.2 hPa   9.6°
7
40%
23:00
11°
1016.5 hPa 23.0 mm 9.6°
6
64%
 05:20     20:52    Daglengte: 15:32 Maandag 26 Aug
02:00
11°
1016.7 hPa 23.3 mm 10.6°
5
95%
05:00
12°
1016.5 hPa 23.6 mm 11.1°
4
100%
08:00
12°
1016.8 hPa 35.6 mm 11.2°
3
80%
11:00
15°
1016.8 hPa 29.6 mm 13.1°
3
92%
14:00
17°
1016.9 hPa 29.6 mm 14.0°
4
92%
17:00
17°
1016.5 hPa 29.7 mm 14.6°
3
92%
20:00
16°
1016.1 hPa 30.3 mm 15.1°
3
92%
23:00
15°
1019.1 hPa 30.4 mm 13.9°
2
88%
 05:24     20:48    Daglengte: 15:24 Dinsdag 27 Aug
02:00
14°
1022.1 hPa 30.4 mm 12.7°
2
84%
05:00
15°
1021.8 hPa 30.4 mm 13.0°
2
73%
08:00
16°
1021.5 hPa 30.4 mm 13.5°
2
62%
11:00
20°
1020.4 hPa 30.4 mm 15.0°
3
61%
14:00
23°
1019.2 hPa 30.4 mm 16.0°
4
60%
17:00
23°
1020.1 hPa 30.4 mm 16.4°
3
31%
20:00
21°
1021.1 hPa 30.4 mm 16.6°
2
3%
23:00
18°
1021.1 hPa 30.4 mm 14.8°
2
4%
 05:27     20:44    Daglengte: 15:17 Woensdag 28 Aug
02:00
15°
1021.0 hPa 30.4 mm 12.7°
3
5%
05:00
16°
1019.3 hPa 30.4 mm 13.6°
3
18%
08:00
17°
1017.6 hPa 30.4 mm 14.7°
2
32%
11:00
21°
1017.2 hPa 30.8 mm 16.4°
3
44%
14:00
25°
1016.8 hPa 31.9 mm 17.4°
3
56%
17:00
23°
1016.8 hPa 32.7 mm 17.7°
3
54%
20:00
21°
1016.8 hPa 35.1 mm 17.7°
2
52%
23:00
18°
1016.5 hPa 35.2 mm 15.8°
2
61%
 05:31     20:40    Daglengte: 15:09 Donderdag 29 Aug
02:00
15°
1016.2 hPa 35.2 mm 13.9°
2
69%
05:00
16°
1015.4 hPa 35.6 mm 14.6°
3
73%
08:00
17°
1014.5 hPa 36.4 mm 15.2°
3
77%
11:00
19°
1013.4 hPa 39.1 mm 15.9°
3
76%
14:00
22°
1012.3 hPa 44.5 mm 16.1°
4
75%
17:00
21°
1012.3 hPa 45.3 mm 16.5°
3
70%
20:00
20°
1012.2 hPa 45.4 mm 16.8°
2
65%
23:00
17°
1011.9 hPa 45.4 mm 15.2°
2
68%
 05:34     20:36    Daglengte: 15:02 Vrijdag 30 Aug
02:00
16°
1011.5 hPa 45.5 mm 13.9°
3
71%
05:00
16°
1010.7 hPa 46.2 mm 14.1°
3
80%
08:00
16°
1010.0 hPa 94.1 mm 14.4°
3
89%
14:00
19°
1010.9 hPa 96.9 mm 14.2°
4
75%
20:00
16°
1009.9 hPa 99.8 mm 13.4°
2
70%
 05:37     20:32    Daglengte: 14:55 Zaterdag 31 Aug
02:00
12°
1010.5 hPa 103.8 mm 10.8°
3
83%
08:00
12°
1009.3 hPa 106.6 mm 10.4°
3
84%
14:00
17°
1009.5 hPa 109.3 mm 11.2°
4
89%
20:00
15°
1010.0 hPa 114.0 mm 12.0°
2
81%
 05:40     20:28    Daglengte: 14:48 Zondag 01 Sep
02:00
11°
1011.0 hPa 114.8 mm 9.4°
2
76%
08:00
11°
1011.7 hPa 115.4 mm 9.7°
3
84%
14:00
10°
1000.2 hPa 121.8 mm 6.9°
3
1%
20:00
Voelt als: 7.9°
1000.3 hPa 130.3 mm 7.5°
2
1%
 05:44     20:24    Daglengte: 14:40 Maandag 02 Sep
02:00
Voelt als: 7.9°
1001.4 hPa 144.8 mm 8.5°
3
1%
08:00
11°
1008.9 hPa 2.5 mm 8.6°
2
66%
14:00
13°
1009.9 hPa 2.0 mm 8.7°
3
70%
20:00
11°
1010.9 hPa 1.2 mm 8.8°
2
75%
 05:47     20:20    Daglengte: 14:33 Dinsdag 03 Sep
02:00
10°
Voelt als: 9.3°
1011.4 hPa 1.3 mm 8.6°
2
74%
08:00
10°
1011.1 hPa 1.7 mm 8.6°
2
72%
14:00
14°
1010.9 hPa 1.2 mm 8.2°
3
63%
20:00
11°
1011.0 hPa 1.1 mm 8.3°
1
60%
 05:50     20:16    Daglengte: 14:26 Woensdag 04 Sep
02:00
10°
Voelt als: 9.5°
1011.3 hPa 1.0 mm 7.9°
1
64%
08:00
10°
1010.2 hPa 1.5 mm 8.3°
2
60%
14:00
14°
1009.5 hPa 1.4 mm 9.1°
2
62%
20:00
12°
1009.0 hPa 1.1 mm 9.3°
1
63%
 05:54     20:12    Daglengte: 14:18 Donderdag 05 Sep
02:00
10°
Voelt als: 9.6°
1008.7 hPa 1.1 mm 8.5°
1
56%
08:00
11°
1007.5 hPa 1.8 mm 8.8°
2
56%
14:00
15°
1007.1 hPa 1.4 mm 10.0°
2
64%
20:00
12°
1007.9 hPa 1.5 mm 9.7°
2
69%
 05:57     20:08    Daglengte: 14:11 Vrijdag 06 Sep
02:00
10°
1009.1 hPa 1.4 mm 8.8°
1
67%
08:00
11°
1009.2 hPa 1.0 mm 8.9°
1
65%
14:00
14°
1009.4 hPa 1.5 mm 9.1°
1
67%
20:00
12°
1009.7 hPa 1.2 mm 9.2°
1
65%
 06:00     20:04    Daglengte: 14:04 Zaterdag 07 Sep
02:00
10°
1009.8 hPa 1.2 mm 8.6°
2
63%
08:00
11°
1009.0 hPa 1.7 mm 9.1°
2
64%
  CAPE Lifted Index Hail Supercell Tornado SRH 3km CL BTM PRES CL TOP PRES Swiss DWD icon SMHI TS
 05:10     21:04    Daglengte: 15:54 Vandaag
09:00 4 J/kg 3.0 K 0 % 0 % 0 % 0 m²/s² 0 0 3.33 61
10:00 27 J/kg 2.7 K 0 % 0 % 0 % 0 m²/s² 0 0 3.03 61
11:00 45 J/kg 2.1 K 0 % 0 % 0 % 0 m²/s² 0 0 2.82 61
12:00 80 J/kg 1.4 K 0 % 0 % 0 % 0 m²/s² 0 0 2.39 61
13:00 104 J/kg 0.7 K 0 % 0 % 0 % 0 m²/s² 0 0 1.84 61
14:00 142 J/kg 0.2 K 0 % 0 % 0 % 0 m²/s² 0 0 1.28 61
15:00 166 J/kg 0.1 K 0 % 0 % 0 % 0 m²/s² 0 0 0.67 61
16:00 159 J/kg 0.0 K 0 % 0 % 0 % 0 m²/s² 0 0 0.63 61
17:00 140 J/kg 0.2 K 0 % 0 % 0 % 0 m²/s² 0 0 1.04 61
18:00 66 J/kg 0.9 K 0 % 0 % 0 % 0 m²/s² 0 0 2.28 61
19:00 42 J/kg 1.3 K 0 % 0 % 0 % 0 m²/s² 0 0 3.01 61
20:00 36 J/kg 1.6 K 0 % 0 % 0 % 0 m²/s² 0 0 3.28 3
21:00 26 J/kg 2.0 K 0 % 0 % 0 % 0 m²/s² 0 0 3.56 3
22:00 21 J/kg 2.4 K 0 % 0 % 0 % 0 m²/s² 0 0 4.02 3
23:00 15 J/kg 2.8 K 0 % 0 % 0 % 0 m²/s² 0 0 4 3
 05:14     21:00    Daglengte: 15:46 Morgen
00:00 3 J/kg 3.2 K 0 % 0 % 0 % 0 m²/s² 0 0 4.19 2
01:00 0 J/kg 3.7 K 0 % 0 % 0 % 0 m²/s² 0 0 4.78 2
02:00 0 J/kg 3.9 K 0 % 0 % 0 % 0 m²/s² 0 0 5.25 3
03:00 0 J/kg 3.9 K 0 % 0 % 0 % 0 m²/s² 0 0 5.64 3
04:00 0 J/kg 4.3 K 0 % 0 % 0 % 0 m²/s² 0 0 6.49 2
05:00 0 J/kg 4.5 K 0 % 0 % 0 % 0 m²/s² 0 0 7.35 3
06:00 2 J/kg 4.6 K 0 % 0 % 0 % 0 m²/s² 0 0 8.02 3
07:00 2 J/kg 4.6 K 0 % 0 % 0 % 0 m²/s² 0 0 8.59 3
08:00 2 J/kg 4.7 K 0 % 0 % 0 % 0 m²/s² 0 0 10.64 2
09:00 1 J/kg 4.7 K 0 % 0 % 0 % 0 m²/s² 0 0 11.39 3
10:00 1 J/kg 5.1 K 0 % 0 % 0 % 0 m²/s² 0 0 11.4 3
11:00 1 J/kg 4.4 K 0 % 0 % 0 % 0 m²/s² 0 0 10.7 3
12:00 2 J/kg 4.1 K 0 % 0 % 0 % 0 m²/s² 0 0 10.43 3
13:00 1 J/kg 3.5 K 0 % 0 % 0 % 0 m²/s² 0 0 10.01 3
14:00 5 J/kg 3.4 K 0 % 0 % 0 % 0 m²/s² 0 0 10.36 3
15:00 2 J/kg 3.1 K 0 % 0 % 0 % 0 m²/s² 0 0 10.57 3
16:00 10 J/kg 3.0 K 0 % 0 % 0 % 0 m²/s² 0 0 9.36 3
17:00 15 J/kg 3.0 K 0 % 0 % 0 % 0 m²/s² 0 0 8.1 3
18:00 18 J/kg 3.2 K 0 % 0 % 0 % 0 m²/s² 0 0 8.3 3
19:00 13 J/kg 3.8 K 0 % 0 % 0 % 0 m²/s² 0 0 8.75 3
20:00 0 J/kg 4.1 K 0 % 0 % 0 % 0 m²/s² 0 0 7.85 61
21:00 0 J/kg 3.9 K 0 % 0 % 0 % 0 m²/s² 0 0 4.14 61
22:00 0 J/kg 3.9 K 0 % 0 % 0 % 0 m²/s² 0 0 4.14 61
23:00 0 J/kg 4.0 K 0 % 0 % 0 % 0 m²/s² 0 0 4.18 61
 05:17     20:56    Daglengte: 15:39 Zondag 25 Aug
00:00 0 J/kg 4.2 K 0 % 0 % 0 % 0 m²/s² 0 0 4.5 61
01:00 0 J/kg 4.2 K 0 % 0 % 0 % 0 m²/s² 0 0 4.62 61
02:00 0 J/kg 3.0 K 0 % 0 % 0 % 0 m²/s² 0 0 3.18 61
03:00 0 J/kg 3.7 K 0 % 0 % 0 % 0 m²/s² 0 0 3.82 61
04:00 0 J/kg 3.6 K 0 % 0 % 0 % 0 m²/s² 0 0 3.72 61
05:00 0 J/kg 2.8 K 0 % 0 % 0 % 0 m²/s² 0 0 3.28 61
06:00 63 J/kg 4.3 K 0 % 0 % 0 % 0 m²/s² 0 0 4.51 3
07:00 44 J/kg 5.6 K 0 % 0 % 0 % 0 m²/s² 0 0 5.84 61
08:00 0 J/kg 3.7 K 0 % 0 % 0 % 0 m²/s² 0 0 3.88 61
09:00 152 J/kg 2.8 K 0 % 0 % 0 % 0 m²/s² 0 0 3.01 61
10:00 94 J/kg 4.4 K 0 % 0 % 0 % 0 m²/s² 0 0 4.61 61
11:00 39 J/kg 5.0 K 0 % 0 % 0 % 0 m²/s² 0 0 5.21 61
12:00 6 J/kg 4.8 K 0 % 0 % 0 % 0 m²/s² 0 0 4.98 61
13:00 4 J/kg 3.7 K 0 % 0 % 0 % 0 m²/s² 0 0 3.91 63
14:00 27 J/kg 2.9 K 0 % 0 % 0 % 0 m²/s² 0 0 3.02 63
15:00 28 J/kg 2.4 K 0 % 0 % 0 % 0 m²/s² 0 0 2.52 61
16:00 2 J/kg 2.5 K 0 % 0 % 0 % 0 m²/s² 0 0 3.67 3
17:00 55 J/kg 1.9 K 0 % 0 % 0 % 0 m²/s² 0 0 4.54 2
18:00 80 J/kg 1.2 K 0 % 0 % 0 % 0 m²/s² 0 0 6.3 80
19:00 55 J/kg 3.1 K 0 % 0 % 0 % 0 m²/s² 0 0 8.92 2
20:00 40 J/kg 4.5 K 0 % 0 % 0 % 0 m²/s² 0 0 9.12 2
21:00 37 J/kg 6.1 K 0 % 0 % 0 % 0 m²/s² 0 0 8.68 2
22:00 34 J/kg 7.6 K 0 % 0 % 0 % 0 m²/s² 0 0 9.7 2
23:00 14 J/kg 9.1 K 0 % 0 % 0 % 0 m²/s² 0 0 12.43 80
 05:20     20:52    Daglengte: 15:32 Maandag 26 Aug
00:00 1 J/kg 8.3 K 0 % 0 % 0 % 0 m²/s² 0 0 11.72 3
01:00 5 J/kg 8.2 K 0 % 0 % 0 % 0 m²/s² 0 0 12.31 80
02:00 6 J/kg 8.1 K 0 % 0 % 0 % 0 m²/s² 0 0 11.52 3
03:00 1 J/kg 7.4 K 0 % 0 % 0 % 0 m²/s² 0 0 11.09 3
04:00 2 J/kg 7.6 K 0 % 0 % 0 % 0 m²/s² 0 0 11.2 3
05:00 6 J/kg 8.3 K 0 % 0 % 0 % 0 m²/s² 0 0 12.41 3
06:00 5 J/kg 8.0 K 0 % 0 % 0 % 0 m²/s² 0 0 11.9 3
07:00 6 J/kg 8.7 K 0 % 0 % 0 % 0 m²/s² 0 0 13.47 3
08:00 15 J/kg 8.8 K 0 % 0 % 0 % 0 m²/s² 0 0 13.96 3
Temp Baro Wind Neerslag
  EWN Forecast EWN WRFDA DWD ICON FMI HIRLAM MET Norway GFS
 05:10     21:04    Daglengte: 15:54 Vandaag
11:00 11.7° 1011.9 hPa 0.6 m/s 4.7 mm 12.5° 1010.4 hPa 0.4 m/s 21.2 mm 12.9° 1012.0 hPa 0.8 m/s 0.6 mm 12.2° 1011.2 hPa 1.3 m/s 0.0 mm 11.5° 1012.0 hPa 0.4 m/s 1.2 mm 11.7° 1011.6 hPa 0.7 m/s
14:00 12.5° 1013.0 hPa 1.5 m/s 4.0 mm 15.3° 1010.5 hPa 3.2 m/s 21.6 mm 12.6° 1012.7 hPa 1.7 m/s 0.8 mm 12.4° 1012.6 hPa 1.8 m/s 0.0 mm 12.8° 1013.3 hPa 0.5 m/s 1.2 mm 11.8° 1012.6 hPa 1.1 m/s
17:00 12.6° 1014.2 hPa 1.5 m/s 4.5 mm 15.3° 1012.2 hPa 4.0 m/s 23.3 mm 12.7° 1014.5 hPa 1.7 m/s 1.0 mm 13.3° 1013.7 hPa 2.6 m/s 0.0 mm 12.6° 1014.2 hPa 0.3 m/s 0.9 mm 12.1° 1014.6 hPa 0.9 m/s
20:00 12.0° 1015.7 hPa 1.8 m/s 4.4 mm 13.6° 1013.3 hPa 3.4 m/s 23.7 mm 12.3° 1015.7 hPa 1.6 m/s 0.4 mm 12.6° 1015.1 hPa 2.9 m/s 0.0 mm 12.0° 1015.8 hPa 1.5 m/s 0.8 mm 11.7° 1015.5 hPa 0.9 m/s
23:00 10.8° 1017.4 hPa 2.1 m/s 0.0 mm 10.0° 1015.5 hPa 2.4 m/s 23.7 mm 11.5° 1017.4 hPa 1.4 m/s 0.0 mm 11.9° 1017.4 hPa 2.1 m/s 0.0 mm 10.8° 1017.4 hPa 2.5 m/s 0.0 mm 10.0° 1017.5 hPa 1.1 m/s
 05:14     21:00    Daglengte: 15:46 Morgen
02:00 9.8° 1019.4 hPa 1.9 m/s 0.0 mm 8.6° 1016.7 hPa 2.3 m/s 23.8 mm 11.1° 1019.1 hPa 1.4 m/s 0.0 mm 11.2° 1019.8 hPa 1.8 m/s 0.0 mm 9.7° 1019.5 hPa 2.5 m/s 0.0 mm 10.8° 1019.2 hPa 1.4 m/s
05:00 9.5° 1021.4 hPa 1.2 m/s 0.0 mm 10.2° 1018.5 hPa 1.6 m/s 24.0 mm 10.8° 1020.9 hPa 1.0 m/s 0.0 mm 9.8° 1022.4 hPa 2.1 m/s 0.0 mm 9.0° 1021.5 hPa 1.1 m/s 0.0 mm 9.6° 1020.7 hPa 1.0 m/s
08:00 10.8° 1022.8 hPa 0.8 m/s 0.0 mm 10.7° 1019.3 hPa 0.7 m/s 24.2 mm 11.5° 1021.4 hPa 0.2 m/s 0.0 mm 11.2° 1024.3 hPa 1.9 m/s 0.0 mm 10.9° 1023.1 hPa 0.8 m/s 0.0 mm 11.6° 1021.3 hPa 0.6 m/s
11:00 13.1° 1023.3 hPa 1.3 m/s 0.0 mm 13.9° 1020.4 hPa 2.3 m/s 24.2 mm 13.1° 1022.0 hPa 0.4 m/s 0.0 mm 13.1° 1025.3 hPa 2.7 m/s 0.0 mm 13.8° 1023.6 hPa 1.2 m/s 0.0 mm 14.0° 1022.0 hPa 0.4 m/s
14:00 15.2° 1023.1 hPa 1.3 m/s 0.0 mm 16.6° 1019.6 hPa 0.7 m/s 24.2 mm 15.2° 1021.6 hPa 0.9 m/s 0.0 mm 14.8° 1025.7 hPa 2.1 m/s 0.0 mm 15.9° 1023.7 hPa 1.6 m/s 0.0 mm 16.2° 1021.6 hPa 1.0 m/s
17:00 16.0° 1022.3 hPa 1.6 m/s 0.0 mm 18.3° 1019.5 hPa 3.0 m/s 24.2 mm 15.9° 1020.8 hPa 0.4 m/s 0.0 mm 14.8° 1026.1 hPa 1.6 m/s 0.0 mm 17.0° 1022.8 hPa 2.0 m/s 0.0 mm 17.2° 1021.6 hPa 1.6 m/s
20:00 14.8° 1021.1 hPa 1.0 m/s 0.0 mm 16.2° 1018.8 hPa 0.8 m/s 24.2 mm 15.1° 1018.8 hPa 0.4 m/s 0.1 mm 13.3° 1026.2 hPa 1.3 m/s 0.0 mm 15.7° 1021.6 hPa 1.1 m/s 0.0 mm 14.7° 1020.7 hPa 0.4 m/s
23:00 12.6° 1020.4 hPa 1.7 m/s 3.9 mm 14.1° 1018.7 hPa 0.9 m/s 24.8 mm 13.3° 1019.2 hPa 0.6 m/s 1.1 mm 11.3° 1026.3 hPa 1.4 m/s 0.0 mm 12.7° 1020.5 hPa 3.0 m/s 0.0 mm 13.4° 1020.3 hPa 1.1 m/s
 05:17     20:56    Daglengte: 15:39 Zondag 25 Aug
02:00 12.2° 1019.7 hPa 1.0 m/s 3.9 mm 14.1° 1017.3 hPa 1.1 m/s 25.2 mm 12.4° 1017.4 hPa 0.5 m/s 1.0 mm 10.5° 1026.0 hPa 0.7 m/s 0.0 mm 12.4° 1020.0 hPa 1.7 m/s 0.0 mm 13.2° 1019.0 hPa 1.4 m/s
05:00 12.5° 1017.5 hPa 1.3 m/s 7.7 mm 13.9° 1016.0 hPa 0.7 m/s 28.7 mm 12.1° 1017.4 hPa 0.7 m/s 2.4 mm 12.6° 1018.3 hPa 1.7 m/s 0.0 mm 12.9° 1018.1 hPa 1.4 m/s
08:00 13.3° 1016.3 hPa 2.0 m/s 8.4 mm 13.8° 1015.0 hPa 3.9 m/s 41.2 mm 12.3° 1015.7 hPa 0.6 m/s 1.2 mm 13.7° 1016.7 hPa 1.8 m/s 2.0 mm 13.5° 1016.7 hPa 2.0 m/s
11:00 14.0° 1015.6 hPa 2.6 m/s 12.0 mm 14.8° 1015.2 hPa 5.2 m/s 60.8 mm 12.9° 1014.5 hPa 0.7 m/s 2.3 mm 14.4° 1016.5 hPa 2.7 m/s 6.3 mm 13.8° 1015.8 hPa 2.1 m/s
14:00 14.1° 1015.2 hPa 6.2 m/s 15.7 mm 15.5° 1012.5 hPa 8.7 m/s 70.8 mm 13.4° 1013.1 hPa 1.9 m/s 11.3 mm 14.4° 1016.2 hPa 7.2 m/s 4.6 mm 13.8° 1014.6 hPa 2.5 m/s
17:00 13.9° 1015.8 hPa 7.2 m/s 11.2 mm 14.4° 1012.5 hPa 8.1 m/s 93.8 mm 13.2° 1014.5 hPa 7.7 m/s 1.4 mm 14.6° 1016.2 hPa 7.6 m/s 0.3 mm 13.8° 1013.5 hPa 2.1 m/s
20:00 12.5° 1016.2 hPa 6.7 m/s 0.0 mm 12.8° 1012.1 hPa 7.7 m/s 101.9 mm 11.9° 1014.5 hPa 7.7 m/s 0.5 mm 13.3° 1016.8 hPa 6.8 m/s 0.0 mm 13.8° 1012.4 hPa 5.0 m/s
23:00 11.5° 1016.5 hPa 5.9 m/s 23.0 mm 11.4° 1012.8 hPa 8.6 m/s 102.5 mm 11.1° 1015.8 hPa 7.9 m/s 0.4 mm 13.0° 1016.7 hPa 5.4 m/s 12.2° 1013.7 hPa 3.7 m/s
 05:20     20:52    Daglengte: 15:32 Maandag 26 Aug
02:00 11.4° 1016.7 hPa 4.9 m/s 23.3 mm 11.4° 1013.0 hPa 7.7 m/s 104.0 mm 10.9° 1016.5 hPa 6.4 m/s 0.4 mm 12.7° 1016.6 hPa 4.0 m/s 11.5° 1014.6 hPa 4.2 m/s
05:00 12.0° 1016.5 hPa 3.8 m/s 23.6 mm 11.4° 1013.6 hPa 6.7 m/s 105.6 mm 11.1° 1017.8 hPa 3.5 m/s 0.3 mm 12.6° 1016.7 hPa 3.5 m/s 10.6° 1015.8 hPa 3.3 m/s
08:00 12.2° 1016.8 hPa 3.3 m/s 35.6 mm 11.9° 1014.5 hPa 6.3 m/s 106.5 mm 11.5° 1018.7 hPa 3.0 m/s 0.2 mm 12.6° 1016.7 hPa 2.9 m/s 11.9° 1016.3 hPa 3.1 m/s
11:00 15.5° 1016.8 hPa 3.4 m/s 29.6 mm 15.6° 1016.8 hPa 3.5 m/s 14.2° 1017.3 hPa 2.7 m/s 29.6 mm
14:00 16.9° 1016.9 hPa 3.6 m/s 29.6 mm 17.1° 1016.8 hPa 3.8 m/s 15.3° 1018.1 hPa 1.8 m/s 29.6 mm
17:00 16.7° 1016.5 hPa 3.1 m/s 29.7 mm 16.8° 1016.4 hPa 3.2 m/s 15.2° 1017.9 hPa 0.9 m/s 29.7 mm
20:00 16.3° 1016.1 hPa 2.6 m/s 30.3 mm 16.5° 1016.0 hPa 2.7 m/s 13.6° 1017.3 hPa 1.3 m/s 30.3 mm
23:00 15.4° 1019.1 hPa 2.3 m/s 30.4 mm 15.6° 1019.2 hPa 2.5 m/s 13.8° 1017.8 hPa 1.1 m/s 30.4 mm
 05:24     20:48    Daglengte: 15:24 Dinsdag 27 Aug
02:00 14.4° 1022.1 hPa 2.1 m/s 30.4 mm 14.6° 1022.5 hPa 2.2 m/s 12.3° 1017.6 hPa 0.6 m/s 30.4 mm
05:00 14.9° 1021.8 hPa 2.1 m/s 30.4 mm 15.2° 1022.2 hPa 2.2 m/s 11.5° 1017.3 hPa 0.8 m/s 30.4 mm
08:00 15.8° 1021.5 hPa 2.2 m/s 30.4 mm 15.8° 1021.9 hPa 2.3 m/s 15.7° 1017.1 hPa 1.0 m/s 30.4 mm
11:00 19.6° 1020.4 hPa 3.0 m/s 30.4 mm 19.6° 1020.7 hPa 3.2 m/s 19.7° 1016.9 hPa 1.1 m/s 30.4 mm
14:00 23.3° 1019.2 hPa 3.8 m/s 30.4 mm 23.3° 1019.5 hPa 4.1 m/s 23.8° 1015.9 hPa 0.2 m/s 30.4 mm
17:00 22.7° 1020.1 hPa 2.9 m/s 30.4 mm 22.5° 1020.6 hPa 3.1 m/s 25.5° 1015.1 hPa 0.9 m/s 30.4 mm
20:00 21.5° 1021.1 hPa 2.1 m/s 30.4 mm 21.6° 1021.7 hPa 2.1 m/s 20.0° 1014.2 hPa 2.3 m/s 30.4 mm
23:00 18.1° 1021.1 hPa 2.4 m/s 30.4 mm 18.2° 1021.8 hPa 2.5 m/s 16.5° 1013.9 hPa 2.3 m/s 30.4 mm
 05:27     20:44    Daglengte: 15:17 Woensdag 28 Aug
02:00 15.0° 1021.0 hPa 2.8 m/s 30.4 mm 14.9° 1021.8 hPa 2.8 m/s 16.0° 1012.7 hPa 2.3 m/s 30.4 mm
05:00 15.8° 1019.3 hPa 2.5 m/s 30.4 mm 15.9° 1020.0 hPa 2.5 m/s 15.3° 1011.7 hPa 2.3 m/s 30.4 mm
08:00 16.9° 1017.6 hPa 2.3 m/s 30.4 mm 16.8° 1018.2 hPa 2.3 m/s 18.2° 1010.6 hPa 2.3 m/s 30.4 mm
11:00 20.8° 1017.2 hPa 2.8 m/s 30.8 mm 21.0° 1017.8 hPa 2.8 m/s 19.2° 1010.2 hPa 1.9 m/s 30.8 mm
14:00 24.6° 1016.8 hPa 3.2 m/s 31.9 mm 25.1° 1017.4 hPa 3.4 m/s 19.3° 1010.2 hPa 1.3 m/s 31.9 mm
17:00 23.0° 1016.8 hPa 2.6 m/s 32.7 mm 23.5° 1017.3 hPa 2.7 m/s 17.4° 1010.6 hPa 1.7 m/s 32.7 mm
20:00 21.3° 1016.8 hPa 1.9 m/s 35.1 mm 21.9° 1017.3 hPa 2.0 m/s 15.1° 1011.4 hPa 1.4 m/s 35.1 mm
23:00 18.4° 1016.5 hPa 2.1 m/s 35.2 mm 18.8° 1016.9 hPa 2.2 m/s 14.2° 1012.5 hPa 0.6 m/s 35.2 mm
 05:31     20:40    Daglengte: 15:09 Donderdag 29 Aug
02:00 15.5° 1016.2 hPa 2.2 m/s 35.2 mm 15.6° 1016.5 hPa 2.4 m/s 14.1° 1012.6 hPa 0.1 m/s 35.2 mm
05:00 16.0° 1015.4 hPa 2.5 m/s 35.6 mm 16.1° 1015.6 hPa 2.6 m/s 14.6° 1012.5 hPa 1.5 m/s 35.6 mm
08:00 16.5° 1014.5 hPa 2.6 m/s 36.4 mm 16.7° 1014.8 hPa 2.8 m/s 14.8° 1011.2 hPa 0.8 m/s 36.4 mm
11:00 19.3° 1013.4 hPa 3.4 m/s 39.1 mm 19.8° 1013.7 hPa 3.5 m/s 14.6° 1010.3 hPa 1.2 m/s 39.1 mm
14:00 22.0° 1012.3 hPa 4.2 m/s 44.5 mm 22.8° 1012.6 hPa 4.3 m/s 13.4° 1009.5 hPa 2.9 m/s 44.5 mm
17:00 20.9° 1012.3 hPa 3.1 m/s 45.3 mm 21.6° 1012.5 hPa 3.2 m/s 13.6° 1009.7 hPa 1.5 m/s 45.3 mm
20:00 19.7° 1012.2 hPa 2.0 m/s 45.4 mm 20.3° 1012.4 hPa 2.2 m/s 12.7° 1010.0 hPa 0.3 m/s 45.4 mm
23:00 17.4° 1011.9 hPa 2.3 m/s 45.4 mm 18.1° 1012.1 hPa 2.5 m/s 9.6° 1009.4 hPa 0.6 m/s 45.4 mm
 05:34     20:36    Daglengte: 15:02 Vrijdag 30 Aug
02:00 15.5° 1011.5 hPa 2.6 m/s 45.5 mm 15.9° 1011.8 hPa 2.7 m/s 11.3° 1007.8 hPa 1.7 m/s 45.5 mm
05:00 15.6° 1010.7 hPa 2.6 m/s 46.2 mm 15.9° 1011.1 hPa 2.8 m/s 11.4° 1006.4 hPa 0.9 m/s 46.2 mm
08:00 15.7° 1010.0 hPa 2.8 m/s 47.9 mm 16.0° 1010.4 hPa 2.9 m/s 12.0° 1005.9 hPa 1.5 m/s 47.9 mm
14:00 19.3° 1010.9 hPa 4.4 m/s 48.9 mm 19.8° 1011.3 hPa 4.5 m/s 13.6° 1005.9 hPa 3.4 m/s 48.9 mm
20:00 16.0° 1009.9 hPa 2.4 m/s 50.4 mm 16.5° 1010.5 hPa 2.6 m/s 10.9° 1003.5 hPa 0.6 m/s 50.4 mm
 05:37     20:32    Daglengte: 14:55 Zaterdag 31 Aug
02:00 12.4° 1010.5 hPa 2.6 m/s 52.7 mm 12.5° 1011.3 hPa 2.7 m/s 10.7° 1001.4 hPa 2.0 m/s 52.7 mm
08:00 12.3° 1009.3 hPa 3.4 m/s 53.4 mm 12.5° 1010.0 hPa 3.5 m/s 10.3° 1001.1 hPa 2.0 m/s 53.4 mm
14:00 16.5° 1009.5 hPa 4.1 m/s 55.5 mm 17.0° 1010.3 hPa 4.3 m/s 11.4° 1001.0 hPa 1.6 m/s 55.5 mm
20:00 14.8° 1010.0 hPa 1.6 m/s 57.3 mm 15.4° 1010.8 hPa 1.7 m/s 8.4° 1000.7 hPa 0.4 m/s 57.3 mm
 05:40     20:28    Daglengte: 14:48 Zondag 01 Sep
02:00 11.1° 1011.0 hPa 1.9 m/s 57.4 mm 11.4° 1012.0 hPa 2.0 m/s 7.9° 1000.5 hPa 1.3 m/s 57.4 mm
08:00 11.4° 1011.7 hPa 2.8 m/s 58.0 mm 11.6° 1012.8 hPa 2.9 m/s 8.8° 999.9 hPa 1.5 m/s 58.0 mm
14:00 10.2° 1000.2 hPa 3.1 m/s 61.5 mm 10.2° 1000.2 hPa 3.1 m/s 61.5 mm
20:00 9.1° 1000.3 hPa 2.2 m/s 66.3 mm 9.1° 1000.3 hPa 2.2 m/s 66.3 mm
 05:44     20:24    Daglengte: 14:40 Maandag 02 Sep
02:00 9.5° 1001.4 hPa 3.0 m/s 73.4 mm 9.5° 1001.4 hPa 3.0 m/s 73.4 mm
08:00 10.7° 1008.9 hPa 1.7 m/s 2.5 mm
14:00 13.4° 1009.9 hPa 2.7 m/s 2.0 mm
20:00 11.3° 1010.9 hPa 1.8 m/s 1.2 mm
 05:47     20:20    Daglengte: 14:33 Dinsdag 03 Sep
02:00 10.0° 1011.4 hPa 1.8 m/s 1.3 mm
08:00 10.4° 1011.1 hPa 2.1 m/s 1.7 mm
14:00 13.5° 1010.9 hPa 2.8 m/s 1.2 mm
20:00 11.4° 1011.0 hPa 1.5 m/s 1.1 mm
 05:50     20:16    Daglengte: 14:26 Woensdag 04 Sep
02:00 9.6° 1011.3 hPa 1.2 m/s 1.0 mm
08:00 10.4° 1010.2 hPa 1.6 m/s 1.5 mm
14:00 14.2° 1009.5 hPa 2.0 m/s 1.4 mm
20:00 11.9° 1009.0 hPa 0.9 m/s 1.1 mm
 05:54     20:12    Daglengte: 14:18 Donderdag 05 Sep
02:00 9.9° 1008.7 hPa 1.4 m/s 1.1 mm
08:00 10.7° 1007.5 hPa 1.7 m/s 1.8 mm
14:00 14.6° 1007.1 hPa 2.0 m/s 1.4 mm
20:00 11.9° 1007.9 hPa 1.6 m/s 1.5 mm
 05:57     20:08    Daglengte: 14:11 Vrijdag 06 Sep
02:00 10.0° 1009.1 hPa 1.4 m/s 1.4 mm
08:00 10.7° 1009.2 hPa 1.4 m/s 1.0 mm
14:00 14.0° 1009.4 hPa 1.4 m/s 1.5 mm
20:00 11.7° 1009.7 hPa 1.2 m/s 1.2 mm
 06:00     20:04    Daglengte: 14:04 Zaterdag 07 Sep
02:00 10.0° 1009.8 hPa 1.5 m/s 1.2 mm
08:00 10.7° 1009.0 hPa 1.9 m/s 1.7 mm
FMI Hirlam - 7.5 km EWN WRFDA - 12 km DWD ICON - 7 km GFS - 25 km Basiskaart






























































Updatetijd (Europe/Amsterdam) Resolutie Lengte Stap
FMI Hirlam 07:00, 13:00, 19:00, 01:00 7.5 km 49h 1h
EWN WRFDA 04:00, 10:00, 16:00, 22:00 12 km 73h 1h
DWD ICON 05:45, 11:45, 17:45, 23:45 7 km 75h 1h
GFS 02:30, 08:30, 14:30, 20:30 25 km 237h 3h
30+ mm
25-30 mm
20-25 mm
15-20 mm
10-15 mm
6-10 mm
4-6 mm
2-4 mm
1-2 mm
0.5-1 mm
0.2-0.5 mm
0.1-0.2 mm
30+ mm
25-30 mm
20-25 mm
15-20 mm
10-15 mm
6-10 mm
4-6 mm
2-4 mm
1-2 mm
0.5-1 mm
0.2-0.5 mm
0.1-0.2 mm
Sneeuwval
Natte sneeuw
Hagel
Vorst
30+ mm
25-30 mm
20-25 mm
15-20 mm
10-15 mm
6-10 mm
4-6 mm
2-4 mm
1-2 mm
0.5-1 mm
0.2-0.5 mm
0.1-0.2 mm
Sneeuwval
Natte sneeuw
Hagel
Vorst
Onweer
50 mm
40 mm
30 mm
26 mm
22 mm
18 mm
14 mm
10 mm
9 mm
8 mm
7 mm
6 mm
5 mm
4.5 mm
4 mm
3.5 mm
3 mm
2.5 mm
2 mm
1.5 mm
1 mm
0.8 mm
0.6 mm
0.4 mm
0.2 mm